SWA2619 KRDU-KBOS

Flight info

Callsign SWA2619
Flight time N/A
Altitude 39000
Route BEXGO5 BOUSY GEARS BBOBO Q22 RBV Q419 JFK ROBUC3
Aircraft B736/M-SDE2E3FGHIRWXY/LB1

Departure

Time 2026-05-07 00:10
Airport Raleigh-Durham International Airport (KRDU)

Arrival

Time N/A
Airport Boston Logan International Airport (KBOS)
Time Latitude Longitude Altitude Speed Heading
2026-05-06 23:23 35.87897 -78.79233 391 ft 0 kts 136°
2026-05-06 23:56 35.87902 -78.79239 391 ft 2 kts 136°
2026-05-06 23:56 35.87913 -78.79253 391 ft 2 kts 136°
2026-05-06 23:56 35.87925 -78.79267 391 ft 2 kts 136°
2026-05-06 23:57 35.87932 -78.79284 391 ft 2 kts 64°
2026-05-06 23:57 35.87929 -78.79291 391 ft 0 kts 49°
2026-05-06 23:59 35.87930 -78.79290 391 ft 0 kts 49°
2026-05-06 23:59 35.87966 -78.79272 391 ft 13 kts
2026-05-06 23:59 35.88026 -78.79280 391 ft 9 kts 30°
2026-05-07 00:00 35.88074 -78.79229 391 ft 10 kts 44°
2026-05-07 00:00 35.88141 -78.79147 391 ft 8 kts 45°
2026-05-07 00:00 35.88176 -78.79104 390 ft 6 kts 45°
2026-05-07 00:00 35.88191 -78.79086 390 ft 1 kts 45°
2026-05-07 00:01 35.88191 -78.79085 390 ft 0 kts 45°
2026-05-07 00:01 35.88196 -78.79080 390 ft 7 kts 45°
2026-05-07 00:01 35.88209 -78.79064 390 ft 0 kts 45°
2026-05-07 00:02 35.88210 -78.79062 390 ft 0 kts 45°
2026-05-07 00:02 35.88212 -78.79059 390 ft 7 kts 47°
2026-05-07 00:02 35.88215 -78.78952 390 ft 15 kts 62°
2026-05-07 00:02 35.88293 -78.78852 390 ft 17 kts 45°
2026-05-07 00:03 35.88406 -78.78712 390 ft 35 kts 45°
2026-05-07 00:03 35.88578 -78.78497 391 ft 34 kts 45°
2026-05-07 00:03 35.88734 -78.78305 391 ft 24 kts 44°
2026-05-07 00:03 35.88849 -78.78163 391 ft 23 kts 46°
2026-05-07 00:04 35.88958 -78.78026 390 ft 22 kts 53°
2026-05-07 00:04 35.89029 -78.77863 391 ft 22 kts 45°
2026-05-07 00:04 35.89136 -78.77730 391 ft 21 kts 43°
2026-05-07 00:04 35.89221 -78.77641 391 ft 10 kts 351°
2026-05-07 00:05 35.89272 -78.77692 391 ft 9 kts 315°
2026-05-07 00:05 35.89290 -78.77713 391 ft 1 kts 316°
2026-05-07 00:05 35.89295 -78.77719 391 ft 1 kts 316°
2026-05-07 00:05 35.89296 -78.77721 391 ft 0 kts 316°
2026-05-07 00:06 35.89300 -78.77725 391 ft 1 kts 316°
2026-05-07 00:06 35.89301 -78.77726 391 ft 0 kts 316°
2026-05-07 00:08 35.89357 -78.77803 392 ft 17 kts 294°
2026-05-07 00:08 35.89338 -78.77862 391 ft 0 kts 227°
2026-05-07 00:08 35.89333 -78.77868 391 ft 10 kts 227°
2026-05-07 00:09 35.89128 -78.78122 389 ft 72 kts 225°
2026-05-07 00:09 35.88650 -78.78710 392 ft 120 kts 224°
2026-05-07 00:09 35.87981 -78.79514 470 ft 145 kts 223°
2026-05-07 00:09 35.87233 -78.80426 813 ft 151 kts 225°
2026-05-07 00:10 35.86466 -78.81372 1142 ft 159 kts 225°
2026-05-07 00:10 35.85698 -78.82380 1571 ft 161 kts 228°
2026-05-07 00:10 35.84937 -78.83325 2240 ft 154 kts 227°
2026-05-07 00:10 35.84114 -78.84349 2591 ft 185 kts 227°
2026-05-07 00:11 35.83140 -78.85555 2847 ft 211 kts 227°
2026-05-07 00:11 35.82068 -78.86878 3319 ft 223 kts 227°
2026-05-07 00:11 35.80918 -78.88236 3805 ft 237 kts 223°
2026-05-07 00:11 35.79651 -78.89523 4334 ft 236 kts 223°
2026-05-07 00:12 35.78609 -78.91075 4847 ft 238 kts 248°
2026-05-07 00:12 35.78369 -78.93073 5388 ft 240 kts 276°
2026-05-07 00:12 35.79020 -78.94971 5891 ft 248 kts 303°
2026-05-07 00:12 35.80194 -78.96559 5969 ft 252 kts 310°
2026-05-07 00:13 35.81444 -78.98075 5985 ft 252 kts 310°
2026-05-07 00:13 35.82690 -78.99565 5988 ft 252 kts 310°
2026-05-07 00:13 35.83948 -79.01060 5991 ft 252 kts 310°
2026-05-07 00:13 35.85234 -79.02589 6284 ft 260 kts 311°
2026-05-07 00:14 35.86538 -79.04139 7224 ft 261 kts 310°
2026-05-07 00:14 35.87481 -79.05086 7829 ft 270 kts 324°
2026-05-07 00:14 35.89370 -79.05635 8762 ft 292 kts 354°
2026-05-07 00:14 35.91410 -79.05129 9744 ft 309 kts 15°
2026-05-07 00:15 35.93325 -79.03784 10513 ft 330 kts 35°
2026-05-07 00:15 35.94946 -79.01594 10851 ft 361 kts 50°
2026-05-07 00:15 35.96406 -78.99011 11522 ft 370 kts 53°
2026-05-07 00:15 35.97813 -78.96329 11897 ft 371 kts 54°
2026-05-07 00:16 35.99209 -78.93629 12005 ft 375 kts 54°
2026-05-07 00:16 36.00615 -78.90937 11996 ft 372 kts 54°
2026-05-07 00:16 36.02033 -78.88261 11993 ft 372 kts 53°
2026-05-07 00:16 36.03463 -78.85596 11997 ft 373 kts 53°
2026-05-07 00:17 36.04902 -78.82931 11993 ft 373 kts 53°
2026-05-07 00:17 36.06345 -78.80266 11999 ft 374 kts 53°
2026-05-07 00:17 36.07806 -78.77577 12610 ft 379 kts 53°
2026-05-07 00:17 36.09274 -78.74871 13719 ft 377 kts 53°
2026-05-07 00:18 36.10739 -78.72168 14610 ft 381 kts 52°
2026-05-07 00:18 36.12228 -78.69419 15380 ft 388 kts 52°
2026-05-07 00:18 36.13743 -78.66623 16209 ft 393 kts 52°
2026-05-07 00:18 36.15266 -78.63807 17106 ft 396 kts 51°
2026-05-07 00:19 36.16812 -78.60947 17891 ft 403 kts 51°
2026-05-07 00:19 36.18384 -78.58032 18613 ft 410 kts 51°
2026-05-07 00:19 36.19977 -78.55077 19353 ft 416 kts 51°
2026-05-07 00:19 36.21601 -78.52063 19991 ft 424 kts 51°
2026-05-07 00:20 36.23252 -78.48997 20705 ft 429 kts 51°
2026-05-07 00:20 36.24914 -78.45909 21466 ft 433 kts 52°
2026-05-07 00:20 36.26571 -78.42830 22175 ft 437 kts 51°
2026-05-07 00:20 36.28541 -78.39997 22804 ft 432 kts 33°
2026-05-07 00:21 36.30942 -78.37771 23514 ft 432 kts 30°
2026-05-07 00:21 36.33398 -78.35579 24088 ft 437 kts 29°
2026-05-07 00:21 36.35879 -78.33347 24659 ft 442 kts 30°
2026-05-07 00:21 36.38363 -78.31078 25235 ft 447 kts 30°
2026-05-07 00:22 36.40872 -78.28756 25805 ft 452 kts 31°
2026-05-07 00:22 36.43400 -78.26396 26364 ft 457 kts 31°
2026-05-07 00:22 36.45955 -78.24006 26897 ft 462 kts 31°
2026-05-07 00:22 36.48532 -78.21596 27434 ft 466 kts 31°
2026-05-07 00:23 36.51137 -78.19157 27965 ft 470 kts 31°
2026-05-07 00:23 36.53763 -78.16689 28471 ft 475 kts 31°
2026-05-07 00:23 36.56407 -78.14198 29026 ft 479 kts 31°
2026-05-07 00:23 36.59071 -78.11683 29537 ft 483 kts 32°
2026-05-07 00:24 36.61771 -78.09131 30034 ft 487 kts 32°
2026-05-07 00:24 36.64448 -78.06603 30460 ft 492 kts 31°
2026-05-07 00:24 36.67191 -78.04009 30750 ft 498 kts 31°
2026-05-07 00:24 36.69964 -78.01380 31120 ft 502 kts 30°
2026-05-07 00:25 36.72748 -77.98736 31525 ft 505 kts 30°
2026-05-07 00:25 36.75555 -77.96069 31913 ft 508 kts 29°
2026-05-07 00:25 36.78373 -77.93395 32337 ft 509 kts 28°
2026-05-07 00:25 36.81185 -77.90682 32707 ft 514 kts 31°
2026-05-07 00:26 36.83656 -77.87338 32986 ft 536 kts 47°
2026-05-07 00:26 36.85793 -77.83504 33392 ft 539 kts 49°
2026-05-07 00:26 36.87876 -77.79592 33727 ft 543 kts 49°
2026-05-07 00:26 36.89973 -77.75645 34047 ft 545 kts 48°
2026-05-07 00:27 36.92089 -77.71720 34426 ft 543 kts 47°
2026-05-07 00:27 36.94220 -77.67831 34856 ft 540 kts 46°
2026-05-07 00:27 36.96353 -77.63981 35253 ft 539 kts 46°
2026-05-07 00:27 36.98496 -77.60141 35586 ft 538 kts 45°
2026-05-07 00:28 37.00636 -77.56298 36019 ft 535 kts 45°
2026-05-07 00:28 37.02752 -77.52485 36516 ft 531 kts 45°
2026-05-07 00:28 37.04853 -77.48693 36842 ft 532 kts 45°
2026-05-07 00:28 37.06977 -77.44900 37081 ft 530 kts 41°
2026-05-07 00:29 37.09391 -77.41595 37273 ft 513 kts 29°
2026-05-07 00:29 37.12158 -77.38913 37620 ft 493 kts 19°
2026-05-07 00:30 37.21077 -77.34159 38713 ft 454 kts
2026-05-07 00:30 37.24077 -77.32916 38924 ft 455 kts
2026-05-07 00:30 37.30148 -77.30375 38935 ft 463 kts
2026-05-07 00:31 37.36228 -77.27742 38905 ft 459 kts
2026-05-07 00:31 37.42213 -77.25124 38905 ft 453 kts
2026-05-07 00:32 37.48150 -77.22534 38893 ft 449 kts
2026-05-07 00:32 37.54039 -77.19973 38911 ft 447 kts
2026-05-07 00:33 37.59951 -77.17397 38921 ft 454 kts
2026-05-07 00:33 37.65970 -77.14767 38910 ft 459 kts
2026-05-07 00:34 37.71970 -77.11692 38914 ft 477 kts 13°
2026-05-07 00:34 37.77822 -77.07602 38906 ft 482 kts 14°
2026-05-07 00:35 37.83614 -77.03457 38911 ft 480 kts 14°
2026-05-07 00:35 37.89433 -76.99353 38915 ft 478 kts 14°
2026-05-07 00:36 37.95259 -76.95310 38931 ft 477 kts 13°
2026-05-07 00:36 38.01085 -76.91260 38895 ft 477 kts 14°
2026-05-07 00:37 38.06892 -76.87200 38888 ft 477 kts 14°
2026-05-07 00:37 38.12692 -76.83144 38885 ft 475 kts 14°
2026-05-07 00:38 38.18484 -76.79094 38888 ft 475 kts 14°
2026-05-07 00:38 38.24246 -76.75001 38880 ft 480 kts 17°
2026-05-07 00:39 38.27011 -76.72442 38888 ft 503 kts 27°
2026-05-07 00:39 38.29679 -76.69506 38891 ft 511 kts 28°
2026-05-07 00:39 38.35067 -76.63493 38882 ft 517 kts 28°
2026-05-07 00:40 38.40486 -76.57561 38882 ft 516 kts 27°
2026-05-07 00:40 38.45961 -76.51646 38877 ft 514 kts 26°
2026-05-07 00:41 38.51440 -76.45785 38864 ft 512 kts 27°
2026-05-07 00:41 38.56888 -76.39939 38913 ft 511 kts 26°
2026-05-07 00:42 38.62327 -76.34067 38886 ft 511 kts 27°
2026-05-07 00:42 38.67758 -76.28194 38877 ft 511 kts 26°
2026-05-07 00:43 38.73180 -76.22337 38886 ft 510 kts 26°
2026-05-07 00:43 38.78600 -76.16460 38891 ft 511 kts 26°
2026-05-07 00:44 38.84023 -76.10578 38880 ft 510 kts 26°
2026-05-07 00:44 38.89430 -76.04682 38879 ft 510 kts 26°
2026-05-07 00:45 38.94840 -75.98772 38880 ft 510 kts 26°
2026-05-07 00:45 39.00157 -75.92750 38883 ft 516 kts 29°
2026-05-07 00:46 39.05401 -75.86431 38887 ft 518 kts 30°
2026-05-07 00:46 39.10571 -75.79917 38868 ft 521 kts 32°
2026-05-07 00:47 39.15689 -75.73293 38897 ft 521 kts 32°
2026-05-07 00:47 39.20800 -75.66652 38870 ft 522 kts 32°
2026-05-07 00:48 39.25923 -75.60015 38853 ft 522 kts 32°
2026-05-07 00:48 39.31057 -75.53387 38866 ft 522 kts 32°
2026-05-07 00:49 39.36188 -75.46731 38900 ft 524 kts 31°
2026-05-07 00:49 39.41348 -75.40057 38856 ft 524 kts 32°
2026-05-07 00:50 39.46491 -75.33362 38864 ft 525 kts 32°
2026-05-07 00:50 39.51620 -75.26661 38868 ft 525 kts 32°
2026-05-07 00:51 39.56759 -75.19916 38869 ft 527 kts 32°
2026-05-07 00:51 39.61930 -75.13156 38672 ft 532 kts 32°
2026-05-07 00:52 39.64533 -75.09751 38416 ft 530 kts 32°
2026-05-07 00:52 39.67118 -75.06352 38121 ft 529 kts 32°
2026-05-07 00:52 39.69695 -75.02960 37810 ft 526 kts 32°
2026-05-07 00:52 39.72262 -74.99571 37537 ft 525 kts 33°
2026-05-07 00:53 39.74820 -74.96191 37273 ft 525 kts 33°
2026-05-07 00:53 39.77380 -74.92808 37013 ft 525 kts 33°
2026-05-07 00:53 39.79949 -74.89421 36881 ft 527 kts 33°
2026-05-07 00:53 39.82522 -74.86024 36868 ft 529 kts 33°
2026-05-07 00:54 39.87719 -74.79136 36862 ft 534 kts 33°
2026-05-07 00:54 39.92890 -74.72252 36874 ft 536 kts 33°
2026-05-07 00:55 39.98109 -74.65310 36854 ft 537 kts 33°
2026-05-07 00:55 40.03333 -74.58334 36848 ft 538 kts 33°
2026-05-07 00:56 40.08569 -74.51334 36890 ft 538 kts 33°
2026-05-07 00:56 40.13818 -74.44303 36862 ft 540 kts 33°
2026-05-07 00:57 40.18183 -74.38435 36862 ft 541 kts 33°
2026-05-07 00:57 40.23426 -74.31372 36870 ft 540 kts 34°
2026-05-07 00:58 40.28645 -74.24306 36897 ft 540 kts 33°
2026-05-07 00:58 40.33883 -74.17223 36870 ft 540 kts 33°
2026-05-07 00:59 40.41717 -74.06566 36870 ft 541 kts 34°
2026-05-07 01:00 40.46936 -73.99468 36843 ft 540 kts 34°
2026-05-07 01:00 40.49570 -73.95895 36214 ft 544 kts 34°
2026-05-07 01:00 40.52172 -73.92339 35438 ft 534 kts 35°
2026-05-07 01:00 40.54720 -73.88844 34556 ft 527 kts 35°
2026-05-07 01:01 40.57232 -73.85399 33900 ft 516 kts 34°
2026-05-07 01:01 40.59693 -73.82027 33195 ft 505 kts 35°
2026-05-07 01:01 40.62123 -73.78701 32599 ft 502 kts 35°
2026-05-07 01:01 40.64547 -73.75370 32051 ft 507 kts 36°
2026-05-07 01:02 40.66965 -73.71917 31453 ft 518 kts 38°
2026-05-07 01:02 40.69377 -73.68372 30885 ft 517 kts 39°
2026-05-07 01:02 40.71746 -73.64844 30337 ft 511 kts 39°
2026-05-07 01:02 40.74085 -73.61377 30106 ft 503 kts 39°
2026-05-07 01:03 40.76452 -73.57893 29736 ft 521 kts 39°
2026-05-07 01:03 40.78918 -73.54291 28867 ft 541 kts 40°
2026-05-07 01:03 40.81418 -73.50608 28114 ft 535 kts 40°